Theta_e
325 325 331 332 334 335 337 338 339 339 339 340 339 336 337 335 338 337 338 337 333 331 329 328 327 326 327 327 325 326 327 329 330 331 331 332 332 329 330 329 329 330 330 330 332 329 329 332 333 333 334 334 334 333 332 332 331 332 334 334 330 329 329 334 333 331 332 331 331 332 335 337 338 334 334 336 333 337 335 330 330 331 330 332 334
321 325 330 331 331 335 336 336 337 336 336 338 336 336 336 336 337 337 335 333 332 331 329 329 329 326 325 325 326 323 322 325 326 330 331 330 330 328 328 328 328 329 330 333 330 330 329 329 330 332 332 332 334 334 337 336 333 332 332 332 333 331 329 332 331 330 325 324 323 324 330 332 335 334 334 333 330 330 332 330 332 330 328 331 334
324 328 330 329 332 334 334 336 337 336 336 335 336 335 335 335 336 337 333 331 330 332 329 327 328 328 327 325 325 325 328 330 328 329 330 327 328 328 329 330 330 329 330 329 330 330 330 329 330 332 332 333 331 332 334 335 335 335 334 333 331 330 330 331 331 331 326 328 325 324 323 322 328 330 334 333 328 327 333 334 331 329 328 329 331
323 323 327 328 331 333 333 334 336 335 335 334 334 333 333 333 335 335 332 331 330 331 329 330 330 331 330 328 327 327 327 330 329 329 327 327 327 329 329 330 329 328 327 327 327 329 329 327 328 328 330 331 330 329 330 330 334 333 331 328 326 325 329 330 334 332 330 330 319 321 322 321 317 321 325 331 333 333 332 334 333 330 329 329 329
321 324 328 328 329 331 331 332 335 333 334 332 333 332 333 332 335 333 331 332 331 329 331 329 329 330 329 329 330 328 325 324 324 323 325 325 325 327 327 329 328 328 328 328 325 326 326 326 325 326 327 327 327 326 327 328 328 329 332 330 329 331 326 330 330 331 331 331 326 322 320 316 317 323 326 329 332 331 331 333 333 334 333 332 331
320 319 326 329 330 331 331 332 332 332 333 333 335 333 334 332 335 333 331 331 330 330 332 328 325 325 324 321 318 319 320 321 321 321 320 323 323 325 327 329 328 328 328 328 327 326 326 325 326 325 325 325 325 324 325 325 325 326 327 328 330 331 331 325 326 329 330 330 329 331 325 320 322 323 324 318 330 330 332 334 332 329 330 330 333
319 320 323 327 329 330 330 330 330 331 333 335 335 334 334 333 336 333 331 330 331 330 330 326 325 325 323 321 319 320 319 322 324 325 324 322 324 327 325 328 327 328 328 327 327 327 328 326 326 325 323 323 322 324 322 322 322 322 324 325 325 327 327 325 325 326 329 328 328 327 326 328 328 326 320 322 319 326 329 332 330 331 332 332 331
319 321 322 326 328 329 329 331 331 330 333 334 335 334 332 333 335 332 331 330 331 331 327 327 325 324 324 322 321 320 321 323 324 325 325 324 324 325 326 325 326 326 325 324 325 325 326 324 323 322 319 318 317 317 317 318 321 321 321 323 324 324 325 324 323 325 322 322 327 327 327 327 327 325 324 320 320 318 320 328 332 331 332 330 332
316 319 322 324 325 328 329 330 332 332 332 333 335 334 333 333 334 332 330 330 331 331 326 327 326 325 324 323 320 323 324 323 323 323 322 324 324 324 325 323 324 325 323 322 322 321 321 320 321 320 320 319 317 317 319 320 321 322 322 322 321 320 322 324 323 321 322 320 322 322 323 325 326 325 326 325 320 317 320 321 323 329 330 332 330
316 317 319 323 326 328 331 331 332 332 333 334 336 334 332 333 333 330 329 329 332 331 327 326 327 326 324 322 322 321 322 321 322 321 322 323 323 324 323 323 323 323 323 321 321 320 321 321 319 319 320 318 317 319 321 321 322 323 323 323 323 322 321 319 319 320 320 321 318 318 317 319 319 322 323 323 322 321 317 317 322 320 320 329 332
313 315 317 319 320 324 329 330 331 332 333 334 334 333 332 333 332 330 329 329 332 330 327 326 327 326 324 323 322 322 321 321 321 321 321 322 321 322 322 322 323 322 321 322 322 322 323 322 321 320 322 322 320 320 321 321 323 323 323 322 322 322 320 321 320 319 320 317 317 317 317 317 316 315 317 318 317 316 315 315 317 318 320 322 329
314 315 317 320 320 320 321 327 330 331 332 333 334 332 331 332 332 329 329 329 331 330 327 325 325 326 326 325 323 324 323 321 322 320 321 321 321 320 321 321 322 323 323 321 322 323 323 322 322 321 321 322 320 321 322 321 322 322 322 322 323 323 324 322 321 321 322 319 317 317 316 318 318 317 317 317 315 315 315 313 312 313 313 313 315
314 316 319 321 321 321 320 322 328 330 330 332 333 332 332 332 331 329 328 328 330 330 327 327 326 326 326 325 324 324 324 322 323 321 322 321 321 320 320 320 321 321 321 322 323 323 323 321 321 320 319 320 321 318 318 320 320 319 321 321 321 320 320 321 319 319 319 319 319 318 317 316 317 318 318 315 316 316 314 311 313 314 312 313 315
315 316 319 320 322 322 322 323 325 328 329 329 331 331 332 332 331 328 328 329 330 330 327 327 326 327 327 326 324 324 322 323 322 322 323 321 322 320 321 320 320 321 322 323 323 323 323 323 323 322 321 321 320 321 321 320 320 317 319 320 320 320 321 320 319 320 319 319 319 318 316 316 316 319 317 318 317 315 313 314 313 313 313 311 314
317 318 319 321 322 323 325 326 328 327 326 328 329 330 331 330 330 328 328 328 329 329 328 327 326 326 326 327 325 325 323 322 321 322 323 321 322 323 322 321 320 321 321 323 324 324 324 324 324 322 320 321 320 321 320 320 320 318 319 320 320 320 319 318 317 318 317 317 316 316 318 317 316 315 316 317 316 317 315 314 311 308 310 312 311
317 318 319 322 324 324 323 324 325 324 325 327 327 328 329 329 330 329 328 328 329 329 328 327 327 327 326 327 327 326 324 323 321 322 323 323 323 323 322 322 322 321 323 323 325 324 325 324 323 322 321 320 321 321 320 319 319 319 318 319 318 318 319 320 319 319 318 317 316 317 317 315 316 314 316 316 315 316 316 315 314 311 308 307 310
317 318 319 321 322 323 322 322 323 324 324 325 326 327 328 329 329 328 328 329 329 330 329 328 328 327 326 326 327 327 326 324 322 323 325 325 324 323 322 321 324 323 323 324 325 324 325 325 323 322 321 321 321 320 320 319 318 318 319 317 318 319 319 317 319 317 317 318 316 315 315 315 313 316 316 314 315 317 316 315 314 312 310 307 305
317 319 320 321 321 321 322 322 323 324 324 325 326 328 329 328 329 328 328 328 329 329 329 328 328 327 327 328 328 328 327 326 324 323 325 325 323 323 323 322 322 323 323 324 325 323 324 324 323 323 322 321 321 320 319 319 319 318 318 318 318 319 317 318 318 317 317 317 315 314 315 314 312 314 313 315 315 313 313 314 314 314 313 308 307
315 317 318 319 320 320 321 321 322 323 324 325 325 327 327 329 329 329 327 329 329 329 329 328 328 327 328 329 329 328 328 327 326 326 326 325 324 323 322 322 324 323 323 325 325 323 324 323 323 323 322 321 320 320 319 320 318 318 317 317 318 317 317 317 318 317 316 317 315 314 313 313 312 312 313 313 312 312 311 310 311 312 312 314 311
312 314 316 318 319 320 319 320 320 322 323 324 324 325 326 327 328 328 328 328 328 328 329 328 328 327 328 329 329 328 327 326 327 326 326 326 325 324 323 323 323 323 323 325 324 322 323 323 322 322 322 320 319 319 319 319 319 319 317 317 316 317 317 316 316 316 314 315 314 314 311 311 311 310 311 311 310 311 312 309 310 311 311 312 312
311 312 313 315 317 319 320 321 320 321 322 323 323 324 324 325 325 326 326 325 326 326 327 327 328 327 327 328 327 326 328 327 327 327 326 326 326 326 324 324 324 323 323 323 323 322 322 323 322 322 321 321 320 319 319 319 318 318 317 317 317 315 315 315 316 315 314 315 313 311 311 312 312 310 311 310 310 310 310 310 309 309 309 312 311
311 311 311 312 313 315 317 318 319 320 321 322 322 322 323 322 323 323 322 324 323 322 322 323 325 325 326 327 327 327 327 327 327 326 326 325 326 326 326 324 324 323 324 322 322 323 322 323 322 321 322 321 320 319 319 319 317 317 317 317 317 314 314 314 316 314 314 313 313 311 310 312 311 310 311 309 309 308 308 308 307 308 306 307 310
310 310 310 311 312 312 312 313 315 316 317 319 320 321 321 321 321 322 322 323 323 323 324 326 327 325 324 326 326 325 324 324 326 326 326 325 326 326 325 324 323 323 324 323 322 322 322 322 322 322 321 321 320 320 320 319 318 317 316 317 316 315 314 314 313 314 313 313 312 312 311 312 313 311 312 311 311 309 309 307 307 307 306 307 307
310 310 310 310 311 311 311 311 311 312 313 314 315 316 318 320 321 322 323 323 323 324 325 325 325 326 326 326 325 326 326 326 325 325 326 325 326 325 324 324 324 323 322 324 323 321 321 322 321 321 321 321 320 320 320 319 318 317 317 316 316 315 314 314 313 313 311 312 311 312 311 312 312 311 311 310 310 310 309 307 306 307 307 307 308
309 309 309 309 309 309 308 309 309 310 310 312 312 313 313 314 315 316 318 321 323 324 324 323 323 324 326 325 327 328 327 326 326 326 326 327 328 329 328 326 325 324 324 324 324 323 322 321 322 321 321 321 321 320 319 319 319 319 318 317 316 314 315 314 315 314 314 312 311 311 311 311 311 309 310 309 309 308 306 306 306 306 305 307 308
309 309 310 309 308 308 309 309 308 309 308 310 311 311 312 312 313 315 313 315 316 317 320 323 324 324 324 325 326 327 326 325 325 326 326 327 328 327 325 328 325 325 325 325 324 323 322 321 322 322 322 322 321 321 320 319 319 318 318 317 317 315 314 314 313 313 312 310 311 311 311 310 310 309 309 309 308 307 306 306 306 306 305 306 307
309 309 309 310 309 309 309 309 308 309 309 309 308 309 310 311 312 313 313 313 314 315 315 315 316 318 321 324 324 323 325 326 326 326 327 327 327 327 326 327 327 326 325 325 324 324 325 323 323 324 323 323 322 321 320 320 319 319 318 317 316 315 315 314 313 312 312 312 312 311 311 310 309 309 308 307 307 307 306 306 307 307 307 307 307
308 309 309 309 309 309 309 309 308 307 307 307 308 308 308 309 309 310 311 313 313 314 313 314 315 316 315 315 317 321 325 326 326 326 326 326 326 326 327 328 327 326 325 325 325 324 324 324 323 323 324 323 323 321 320 319 319 318 318 317 316 315 314 313 313 312 312 311 311 310 310 309 308 308 308 307 304 302 303 303 303 304 304 304 304
306 308 309 309 308 309 309 308 307 308 307 307 307 308 309 309 309 309 311 310 311 311 311 311 312 313 315 315 316 317 318 318 321 324 324 324 325 326 326 325 326 326 327 326 325 324 323 322 321 323 322 324 323 321 321 319 319 317 317 316 315 314 313 313 312 311 311 310 310 310 309 309 308 310 300 301 301 301 299 298 300 301 302 302 303
306 307 307 307 307 308 308 308 307 307 307 306 307 307 307 308 308 308 309 310 311 311 310 310 309 311 313 313 314 315 315 316 317 318 320 322 323 325 325 325 326 326 326 325 325 324 320 321 319 320 321 323 325 323 315 309 311 317 317 315 315 314 313 312 311 310 309 309 308 309 309 309 305 303 300 296 295 295 297 299 300 301 301 301 301
306 306 306 307 307 308 308 307 307 307 307 307 307 306 306 307 308 307 308 308 309 309 310 310 309 310 311 311 312 313 315 314 315 316 317 318 320 322 323 324 325 326 326 326 325 321 320 318 318 319 321 322 317 309 297 297 299 305 315 316 314 312 311 310 309 308 308 308 308 307 308 308 306 303 302 296 295 295 294 294 295 296 298 300 299
305 305 305 306 306 306 307 306 307 306 307 306 306 305 306 305 306 307 307 308 310 310 310 310 310 310 310 310 311 311 312 312 314 314 315 315 317 319 320 321 322 324 325 325 324 323 321 320 320 320 321 318 309 297 294 295 296 298 304 313 311 310 309 308 307 307 307 306 306 306 306 306 306 305 305 305 301 295 293 293 292 293 293 293 294
304 304 305 305 305 306 307 306 307 307 305 305 305 306 307 307 307 308 308 308 307 307 308 309 310 310 309 311 310 311 311 311 312 313 314 316 316 315 317 318 319 322 322 322 321 321 321 320 321 320 319 311 304 293 293 294 294 293 293 302 308 307 307 307 306 306 305 305 305 304 304 304 304 307 303 303 304 305 297 293 294 294 293 293 291
304 304 305 305 306 306 307 307 307 307 307 307 308 306 307 308 307 307 307 307 306 306 306 307 308 309 310 310 310 310 310 311 312 312 313 313 314 315 316 318 318 319 320 319 320 320 320 320 319 318 316 309 304 293 292 292 292 291 290 296 307 305 305 304 304 304 305 304 303 303 302 302 303 304 304 304 304 305 305 305 303 303 303 300 293
303 304 304 305 306 306 307 307 306 306 307 307 306 307 308 307 307 306 307 307 307 307 307 307 307 308 309 310 311 310 310 311 311 312 313 312 313 315 316 317 317 317 317 318 318 319 319 320 318 317 307 304 299 291 291 291 291 291 290 295 305 304 303 303 304 304 303 303 303 303 303 303 304 304 305 303 304 303 302 301 301 301 301 301 302
303 303 304 305 305 304 305 306 306 306 306 306 306 307 307 307 307 307 307 307 307 306 307 308 308 308 308 309 310 310 311 311 312 312 312 312 314 315 315 317 317 317 317 317 318 319 319 318 319 306 303 298 295 289 290 290 291 290 290 302 303 302 301 301 302 303 302 303 304 304 303 303 303 303 297 291 295 300 300 299 298 298 299 300 301
303 304 304 306 306 306 307 307 307 307 306 306 307 307 307 307 306 306 306 306 306 306 306 307 308 308 309 310 310 310 310 311 311 311 311 312 312 313 315 316 316 316 316 316 317 318 318 317 306 303 300 297 295 291 289 290 290 289 293 301 300 299 300 300 301 302 303 303 303 303 303 303 302 302 295 289 289 293 297 297 297 297 298 298 298
303 304 304 305 305 305 305 305 305 305 306 307 307 307 306 306 306 306 305 305 305 305 306 306 307 308 308 309 310 310 310 311 311 311 311 312 313 314 315 316 315 314 314 314 316 316 316 307 303 301 298 295 295 292 289 290 290 289 293 300 299 299 299 299 300 301 303 302 303 303 302 300 300 301 290 289 289 294 296 296 296 295 295 295 296
302 303 303 303 304 303 303 304 305 305 306 307 307 306 305 305 305 305 305 305 306 307 307 307 308 309 309 309 310 310 310 311 311 311 312 311 312 313 315 315 314 315 314 314 309 307 304 302 300 298 296 295 294 292 290 289 289 289 295 299 298 297 297 297 299 300 301 302 302 302 300 299 300 298 289 289 288 292 295 295 295 295 293 293 294
301 303 303 303 302 302 302 303 304 305 306 306 306 305 305 305 305 306 306 305 306 307 308 308 309 309 310 310 311 311 311 311 311 312 313 312 313 313 314 314 315 312 310 308 306 302 298 297 296 296 296 295 294 294 292 289 290 289 289 295 297 296 296 297 299 299 299 300 300 300 300 293 292 289 289 288 289 289 293 295 295 293 292 291 294
301 301 299 300 301 302 302 302 303 304 305 306 305 305 304 305 305 305 305 306 307 308 308 308 309 309 310 310 311 311 311 312 312 312 313 313 313 312 313 313 312 309 306 303 300 299 298 297 297 297 295 295 295 294 293 289 290 290 288 290 296 296 297 297 297 296 297 298 299 300 301 289 289 288 289 287 289 288 289 292 293 292 292 292 291
300 299 300 301 301 301 302 302 303 304 305 305 305 304 304 304 304 304 305 306 307 308 308 309 309 308 309 309 310 310 311 312 312 312 311 310 312 313 313 312 310 306 304 300 298 297 297 297 297 297 296 296 297 296 294 290 289 290 289 288 294 296 295 294 294 296 297 298 299 299 300 291 288 288 288 288 288 288 288 291 291 289 289 288 290
300 300 300 299 298 299 300 301 302 303 304 304 304 303 303 304 304 305 307 307 307 308 308 308 308 308 308 308 309 309 309 310 310 310 310 310 311 311 310 308 306 304 301 298 297 297 296 296 296 297 297 297 298 298 293 292 289 289 289 289 287 291 290 295 296 296 297 297 299 299 299 292 289 289 289 288 288 288 289 291 288 288 288 288 288
299 300 300 300 299 299 299 300 302 303 304 304 304 303 303 303 304 306 307 307 307 308 308 307 307 307 307 307 308 308 309 309 309 310 310 310 310 307 305 305 303 300 297 296 296 295 293 292 292 293 295 295 296 296 294 292 292 289 289 289 288 287 289 295 295 295 296 297 298 298 296 290 289 289 288 288 289 289 290 288 288 288 287 288 290
299 299 300 300 299 299 300 301 302 303 303 303 303 302 303 303 305 306 306 306 306 307 306 306 306 306 306 306 307 307 308 309 310 310 309 308 306 303 301 300 298 297 295 294 293 293 292 293 293 294 295 296 296 294 296 293 290 289 289 288 288 288 288 288 294 296 297 297 293 290 289 289 289 288 288 288 288 289 288 287 287 287 289 291 291
299 300 300 300 300 300 300 300 301 302 303 303 304 303 302 303 305 306 306 306 306 306 306 305 305 305 305 305 305 306 307 308 308 309 308 307 304 301 299 297 295 294 294 293 293 294 294 294 294 296 295 296 296 297 297 297 294 292 291 289 289 288 289 289 291 295 291 290 289 288 288 288 288 290 293 293 293 293 290 289 288 289 292 291 291
298 300 299 300 300 299 299 299 300 301 302 302 303 303 304 305 306 307 307 306 306 306 304 304 304 304 304 304 304 304 304 305 306 306 305 303 300 298 297 296 296 295 295 295 295 295 295 295 295 295 295 295 296 298 298 299 299 299 299 297 298 297 291 289 292 297 294 295 293 292 292 290 290 289 288 288 289 290 291 292 293 293 293 293 292
299 299 299 300 299 299 299 299 299 301 302 303 303 303 305 305 306 307 307 307 305 304 303 303 303 303 303 303 303 295 299 302 301 301 300 299 299 299 297 296 295 294 294 294 294 294 294 295 295 295 296 296 296 296 295 296 295 295 296 296 297 296 297 296 295 293 292 292 292 290 291 295 295 294 293 293 293 293 292 291 292 292 292 292 291
298 298 298 298 298 298 299 299 299 300 301 302 303 304 305 306 307 308 307 305 303 301 302 302 302 302 301 301 300 300 301 300 299 299 299 297 297 297 295 296 297 297 296 296 296 295 296 297 296 296 295 295 294 293 293 289 291 288 289 293 293 293 293 293 291 288 290 292 292 292 292 292 292 290 289 290 291 290 290 291 291 291 291 291 291
298 299 299 299 299 299 300 300 301 302 303 303 304 304 304 305 306 306 306 303 302 301 301 300 300 299 299 298 298 298 298 298 297 293 293 291 287 288 292 294 291 289 289 290 292 296 297 297 295 294 295 293 291 294 288 286 288 288 287 286 287 287 287 289 289 287 288 289 290 290 291 291 290 290 289 289 289 289 289 289 289 289 290 290 290
298 298 299 300 300 301 301 301 301 302 302 303 303 303 304 305 305 305 304 302 301 299 298 298 297 297 296 298 297 297 297 296 295 294 293 291 290 290 288 287 289 289 289 289 289 289 289 290 293 292 292 287 287 286 286 288 287 287 287 287 287 288 287 287 287 288 289 290 290 290 290 290 290 289 289 288 288 288 288 288 288 289 289 289 288
Wind_Speed
9 13 14 13 13 11 10 10 10 10 9 9 10 9 9 8 8 8 7 7 6 5 5 4 4 4 3 3 3 2 3 3 2 3 3 5 5 4 3 3 3 3 3 1 1 2 3 4 3 3 4 3 2 6 8 5 5 6 5 4 7 5 5 5 5 9 5 3 5 6 3 3 4 5 7 7 6 7 6 8 6 7 8 7 7
13 12 14 14 12 13 11 10 11 12 10 10 10 10 9 9 9 8 7 7 6 5 4 2 3 3 4 4 3 4 5 4 4 3 3 3 3 3 3 3 2 1 2 3 2 1 3 1 2 3 3 2 2 1 1 1 7 6 4 5 4 3 4 1 3 5 4 6 3 3 3 3 1 1 5 6 9 10 7 8 6 7 8 7 6
12 12 13 14 14 14 11 10 10 11 11 11 10 10 10 9 8 9 7 7 6 5 4 4 2 3 0 4 1 4 5 5 5 4 3 4 3 3 3 2 1 2 2 0 1 2 2 3 0 1 3 3 2 2 2 2 0 3 5 3 3 1 2 1 5 4 3 1 2 1 3 2 1 2 4 7 11 10 7 6 9 9 9 8 6
13 15 16 14 14 13 12 10 10 10 10 10 10 11 9 9 9 9 8 7 7 6 4 6 5 4 5 4 4 3 5 5 4 4 4 4 4 3 4 3 2 2 2 1 1 3 1 0 2 4 3 2 1 2 3 3 3 2 2 3 1 5 3 2 1 0 1 0 2 3 1 2 5 3 3 2 2 3 5 6 4 11 13 9 7
11 11 13 13 14 14 13 12 11 11 11 11 11 10 8 10 10 10 9 8 8 8 6 7 6 5 5 5 5 6 5 4 4 4 4 4 3 3 3 3 3 4 4 4 4 2 2 3 3 2 4 5 5 3 3 5 4 3 4 5 3 2 2 2 2 3 1 1 1 0 2 4 2 1 2 2 1 2 2 2 1 1 5 8 8
11 11 12 12 13 13 13 13 13 12 11 11 11 11 10 10 11 10 9 8 9 10 8 7 6 5 6 6 6 5 5 5 4 5 4 3 4 3 3 2 4 3 3 4 5 4 3 3 2 1 2 2 4 4 3 2 5 8 5 5 4 3 2 4 2 2 3 1 3 0 2 2 1 1 1 1 1 2 3 2 1 3 8 8 4
10 14 13 12 12 12 13 14 14 13 12 11 11 12 12 11 11 11 10 9 10 10 10 7 7 6 7 6 5 5 5 4 5 4 4 4 4 3 4 3 3 3 4 4 3 3 4 4 4 5 4 3 3 4 4 5 5 5 6 6 6 4 2 1 2 3 2 3 4 3 2 1 2 1 1 1 2 1 2 2 3 3 4 5 4
8 8 9 9 10 12 13 13 13 12 12 12 11 12 13 12 12 11 9 10 10 10 11 8 8 7 7 6 6 5 5 6 6 5 4 4 5 4 4 3 3 4 3 3 4 3 3 3 3 3 2 3 3 4 4 5 5 5 5 6 5 5 6 6 3 3 0 4 7 6 6 3 2 6 6 3 2 2 1 0 3 4 4 4 5
7 7 7 8 10 11 11 12 12 13 13 12 12 12 12 12 12 12 10 11 11 12 11 10 8 8 7 6 7 5 7 6 6 5 5 5 5 3 3 4 4 3 4 4 4 5 4 4 3 3 4 3 4 5 5 6 6 6 6 5 5 5 5 4 4 5 5 6 5 1 2 3 5 4 6 2 2 2 3 2 1 1 2 1 3
5 4 3 3 5 7 9 10 12 12 12 12 13 12 13 12 13 13 12 10 11 13 11 11 9 9 8 8 8 7 7 6 6 6 5 5 5 4 4 3 4 4 4 4 4 5 4 4 4 3 4 5 5 5 4 5 5 6 6 5 5 5 5 5 5 5 4 4 4 3 3 3 2 5 6 5 4 4 3 3 1 2 3 0 2
1 1 2 3 3 5 6 10 12 12 11 13 13 13 13 13 14 14 13 10 12 12 12 12 10 9 8 9 8 9 9 7 7 6 6 5 5 5 4 4 3 4 3 3 3 4 3 4 3 3 3 3 3 3 4 4 4 4 4 6 7 6 5 5 5 5 3 4 4 5 5 5 4 4 5 5 4 3 3 3 2 3 3 4 5
1 1 3 3 0 4 8 10 12 13 13 13 12 13 14 13 14 15 13 12 12 12 12 12 10 9 8 9 9 9 9 7 8 8 7 7 6 5 4 4 4 4 4 4 3 3 3 3 2 2 3 2 3 3 3 4 3 4 4 4 4 5 5 5 5 5 5 4 4 4 4 3 3 4 4 2 3 3 3 4 4 4 4 4 1
3 4 3 3 1 2 6 9 10 12 12 13 12 12 13 13 15 16 15 13 12 12 13 13 11 10 9 9 9 9 8 9 8 8 7 6 6 5 5 5 5 5 4 4 4 4 3 3 2 2 2 3 3 3 4 4 3 4 4 5 5 6 5 6 5 5 6 6 4 3 4 4 4 4 3 4 3 2 3 4 4 5 5 5 5
6 6 6 5 4 2 1 6 8 9 11 11 11 11 12 12 14 15 15 13 12 12 13 13 12 10 9 9 9 8 9 8 7 7 7 6 6 6 5 5 5 5 5 4 5 5 3 3 2 2 2 3 2 2 2 2 2 3 4 4 4 4 4 4 5 5 4 5 5 4 4 4 4 3 3 2 2 3 4 5 5 5 5 6 5
7 7 7 6 6 4 2 1 4 7 9 9 10 11 10 11 13 14 14 14 13 12 12 12 11 11 10 9 9 8 8 8 7 7 7 7 6 7 5 4 5 5 5 5 6 5 4 4 3 3 3 2 2 1 2 2 1 2 4 3 3 3 4 4 4 4 4 5 5 4 2 4 4 5 4 4 4 4 4 5 5 6 6 5 5
7 7 8 7 6 5 3 1 3 6 7 7 9 10 10 10 12 13 13 13 12 12 11 11 11 10 11 10 10 9 8 8 8 7 7 7 6 6 6 5 5 5 5 6 7 6 5 5 4 4 3 3 2 2 2 2 1 0 3 2 2 2 2 3 3 3 4 4 4 4 3 4 4 4 4 4 4 4 4 2 3 4 6 6 6
8 8 7 7 7 6 4 4 2 2 3 4 6 7 10 9 10 12 12 11 12 12 11 11 10 11 11 11 10 9 9 9 8 8 8 8 7 7 7 7 6 5 6 6 7 7 6 6 5 5 4 4 3 3 2 1 2 2 2 2 2 2 2 3 2 3 3 2 3 3 3 3 4 3 3 4 4 3 4 4 3 3 4 5 6
10 9 9 9 8 7 5 4 5 4 5 6 6 6 6 8 8 10 10 11 11 10 10 9 10 10 10 10 10 10 9 8 8 8 8 8 8 7 7 7 7 6 6 7 7 8 7 7 6 6 6 5 5 4 4 3 3 3 3 3 3 3 2 3 2 2 2 2 2 3 2 3 3 3 3 2 2 4 3 3 4 4 2 4 5
9 9 9 9 8 7 7 5 5 5 5 5 7 5 5 6 7 8 10 9 8 7 8 8 8 7 7 9 10 10 9 8 8 7 8 8 9 8 8 8 8 8 8 8 9 8 8 8 7 7 7 7 7 6 5 5 5 3 3 3 3 4 4 3 3 2 2 2 2 1 0 2 2 2 2 2 3 3 3 4 4 4 4 4 5
9 10 10 9 9 8 7 7 6 6 6 6 6 5 6 5 5 6 7 7 8 8 7 7 7 7 7 7 8 9 9 9 9 9 8 9 9 9 9 9 9 9 9 10 9 10 10 10 9 9 9 8 8 8 7 7 6 5 5 5 5 5 5 4 4 4 3 3 3 4 1 1 2 3 1 2 3 2 2 4 5 5 5 5 5
9 9 9 10 9 9 8 7 7 6 7 7 7 7 6 4 4 5 5 5 4 3 4 4 4 5 6 7 8 9 9 9 9 9 9 10 9 9 9 9 9 9 9 10 11 11 11 11 11 10 10 9 9 9 8 7 7 7 6 6 6 6 5 5 5 5 3 4 3 2 3 4 2 2 1 3 3 2 4 4 4 5 5 5 5
9 9 9 9 10 10 10 8 7 6 7 7 7 7 8 6 5 4 4 5 5 4 1 4 4 4 5 6 6 6 7 8 8 9 9 9 9 9 9 9 10 10 10 10 11 10 11 11 11 11 11 10 10 10 9 8 8 8 7 5 6 7 6 6 6 5 6 3 2 3 2 2 2 2 1 4 3 4 5 5 5 5 6 6 5
8 8 8 8 8 9 10 11 11 10 9 7 7 8 9 9 7 4 3 2 4 7 6 2 4 2 2 3 2 3 7 10 10 9 9 9 9 10 9 9 10 9 10 10 11 11 11 12 12 12 12 12 12 11 10 10 9 9 9 8 7 8 7 7 6 6 6 5 4 4 3 3 2 3 2 3 3 4 4 5 6 5 6 7 7
8 7 7 6 7 7 8 9 10 9 9 9 9 9 9 8 7 7 6 5 3 2 3 5 3 5 5 5 4 2 6 9 8 7 5 7 8 9 11 11 11 10 10 10 11 11 12 12 13 13 13 12 12 11 11 10 11 10 10 10 9 8 8 7 7 7 6 5 4 4 3 3 3 3 3 3 4 3 4 5 6 6 6 7 6
7 8 7 6 6 6 7 8 8 9 9 8 9 9 9 9 8 8 6 5 5 2 2 4 6 7 5 5 2 3 4 6 7 4 5 6 8 8 10 11 10 11 11 10 11 12 12 13 12 13 13 12 12 11 11 11 10 9 10 9 9 9 8 8 7 6 5 4 5 4 3 2 2 4 4 4 4 5 6 6 6 6 7 6 6
7 7 7 7 6 6 6 6 6 7 7 8 8 8 8 8 8 7 7 6 6 5 3 3 3 4 4 5 5 6 8 9 9 8 8 8 6 5 10 11 11 11 10 11 11 12 13 14 14 14 13 12 12 11 11 11 10 9 9 9 9 8 8 8 7 6 6 5 5 4 3 3 4 3 4 4 5 6 6 6 7 7 7 7 8
6 6 6 7 7 7 7 6 6 6 6 6 6 7 7 7 7 7 7 6 5 4 4 3 3 1 3 5 5 9 8 8 8 7 7 6 6 8 10 11 10 11 12 12 12 12 12 13 13 12 12 13 12 12 12 12 11 11 10 10 9 8 8 6 6 6 5 5 5 5 4 3 4 4 4 4 4 5 5 7 7 7 7 7 8
4 5 7 7 7 7 6 6 5 6 5 6 6 6 6 5 6 6 6 5 3 3 2 2 0 1 2 2 2 2 4 5 7 7 7 6 7 7 7 10 10 12 12 12 12 12 9 9 10 10 11 12 13 12 13 12 11 11 10 10 9 8 8 7 6 6 4 4 4 4 5 5 5 5 4 3 4 6 6 7 7 7 7 8 9
4 5 5 6 6 6 6 5 5 5 5 4 4 6 5 5 5 5 4 4 3 3 2 2 1 2 1 2 2 2 3 4 5 6 7 8 9 10 11 12 11 11 9 10 10 9 2 5 5 7 9 9 12 12 11 10 8 10 9 9 10 8 8 7 6 6 5 4 4 4 5 5 2 5 5 1 3 4 6 7 7 7 8 8 9
7 7 6 6 6 6 6 5 4 4 4 5 4 4 4 4 4 4 3 3 2 2 3 2 3 3 2 3 3 3 4 5 6 6 8 8 9 10 10 10 11 11 10 10 9 3 5 4 7 11 12 10 6 4 4 5 9 9 10 10 9 8 7 6 5 5 5 5 5 5 5 5 3 6 7 9 10 10 9 8 8 7 8 8 8
5 5 5 6 6 6 6 5 5 4 3 3 3 3 3 3 3 3 3 3 3 3 2 2 3 4 4 4 5 5 4 6 6 6 7 7 8 7 7 8 8 9 9 8 6 7 6 6 12 14 11 3 4 3 9 7 9 6 9 8 8 6 6 5 5 5 5 4 5 5 6 4 8 10 11 13 12 12 12 12 12 12 10 9 9
6 5 5 5 6 5 5 4 3 2 3 3 3 2 3 3 3 4 4 3 3 3 3 3 4 4 4 5 5 5 6 6 5 7 7 8 7 7 8 8 8 8 8 8 9 9 10 12 11 14 6 3 4 6 13 12 13 13 7 7 6 5 5 4 4 4 4 4 5 4 5 5 6 8 8 6 10 14 13 13 14 14 14 15 13
7 7 5 4 3 5 4 2 1 3 2 4 3 2 3 3 3 2 2 3 4 4 4 4 5 5 5 5 5 6 6 6 6 7 6 6 7 8 8 8 9 8 7 9 10 10 11 10 12 13 11 6 6 7 12 13 14 13 9 4 5 5 5 5 3 3 3 4 5 5 6 6 6 4 6 9 9 7 13 17 15 15 15 15 15
6 5 4 3 1 2 3 3 1 2 4 3 2 2 2 2 3 4 4 5 5 5 5 5 5 5 6 5 6 7 7 7 6 7 7 8 8 9 8 8 7 7 9 9 9 10 9 9 9 11 7 7 8 8 12 13 13 12 8 3 3 4 2 1 3 3 4 4 5 6 6 7 7 7 7 8 8 8 7 5 7 8 9 13 18
5 3 2 2 1 0 1 0 1 4 3 2 2 2 3 4 4 5 5 6 6 6 6 6 6 6 6 6 7 7 7 7 7 7 7 8 8 8 8 8 7 7 8 9 9 9 9 8 9 5 8 7 6 9 12 12 12 10 6 2 3 3 2 3 4 4 5 6 6 6 7 7 7 7 5 4 5 8 8 8 9 10 10 11 9
4 4 4 5 3 2 1 2 3 4 3 4 3 3 4 5 5 6 6 6 6 7 7 7 7 7 7 7 7 7 7 7 7 8 8 8 8 8 8 8 7 7 7 7 7 7 8 9 5 10 9 10 7 8 11 11 10 8 4 2 3 1 2 4 4 5 6 6 6 6 7 7 6 8 4 7 6 4 7 10 11 11 11 10 10
4 4 4 4 4 3 1 1 3 4 4 5 5 4 5 5 6 6 6 7 7 7 7 7 7 7 7 7 7 8 8 8 8 8 8 8 8 8 8 7 8 7 7 7 7 7 7 5 10 10 11 10 8 7 9 9 7 6 2 3 3 3 4 5 5 6 6 7 7 7 6 5 6 8 5 9 7 2 6 9 10 11 11 11 10
4 3 5 5 3 3 3 2 5 5 5 5 4 4 5 6 7 7 7 8 8 8 8 9 9 8 8 8 8 8 8 8 8 9 8 8 7 7 7 7 8 7 8 5 2 3 4 8 9 10 10 11 9 7 8 7 7 5 2 2 3 4 5 4 5 6 6 6 7 3 4 9 9 9 7 7 8 4 8 10 11 12 13 12 11
6 6 6 5 3 4 7 7 6 6 5 5 6 7 7 7 6 7 8 8 8 8 9 9 9 8 9 9 8 9 9 9 9 9 8 8 8 8 7 7 7 5 5 6 7 8 8 7 8 9 11 11 9 7 7 7 5 3 2 2 3 3 4 5 5 6 6 6 6 6 11 9 10 5 9 6 7 5 8 10 11 12 13 14 12
8 6 5 5 7 8 7 6 7 7 6 7 7 7 7 7 8 7 8 9 9 9 9 9 9 9 8 8 8 8 9 9 9 9 9 9 7 7 7 6 2 3 5 7 8 8 9 8 9 10 8 8 8 6 6 6 4 2 3 4 3 3 4 4 5 5 6 7 7 8 8 11 4 9 6 6 5 3 6 9 10 12 14 15 12
8 7 6 8 8 7 7 8 8 8 8 7 7 8 8 8 8 8 9 9 9 9 10 10 9 9 9 9 9 9 9 9 9 9 8 9 8 8 6 6 6 5 6 8 9 9 9 9 8 8 9 8 6 7 6 8 5 3 2 2 2 3 4 4 5 6 7 7 7 6 3 12 11 7 6 3 4 4 4 8 9 12 14 14 13
8 7 8 8 7 7 9 9 9 8 8 8 8 9 8 9 9 10 10 10 10 10 9 10 10 11 10 10 10 9 9 8 9 9 10 10 9 6 5 7 6 6 8 10 10 9 9 9 8 8 8 8 8 8 7 7 6 6 5 3 3 2 5 5 6 7 7 6 7 6 2 8 6 3 1 4 6 7 8 9 12 14 15 15 14
11 9 9 9 9 9 8 8 8 9 8 8 9 10 10 9 10 10 9 9 10 10 10 11 11 11 10 10 10 11 10 9 9 11 10 9 8 4 6 7 8 9 10 11 10 10 10 9 8 7 6 7 7 6 9 7 8 7 7 5 3 4 3 4 5 7 7 7 7 6 5 8 15 14 14 14 15 16 13 11 12 12 13 14 13
12 11 11 11 11 11 11 11 10 9 9 9 9 10 10 10 11 10 10 10 10 11 11 10 10 10 10 11 11 11 10 10 11 10 9 7 5 6 6 6 9 10 10 10 9 9 9 9 8 6 6 6 6 5 7 10 8 10 9 8 7 5 4 4 5 6 6 6 6 6 8 12 13 13 13 12 12 13 12 15 16 16 17 15 10
13 13 12 12 12 12 11 11 10 10 10 10 10 11 12 12 11 10 11 11 11 11 11 11 11 11 11 11 11 11 11 10 10 9 7 6 8 7 7 7 9 9 10 9 9 8 8 7 7 7 7 7 7 7 6 9 13 11 11 10 9 10 10 9 6 6 7 7 8 8 9 9 9 11 14 14 14 15 17 18 17 17 14 9 10
15 14 13 13 12 13 13 12 12 11 11 10 11 11 13 12 11 11 11 12 12 11 11 11 11 11 11 12 12 11 11 10 7 6 5 6 9 8 9 9 9 8 9 9 9 9 9 9 8 8 8 7 8 7 7 7 8 9 9 11 12 13 11 11 12 9 11 14 15 15 15 14 13 12 9 8 10 11 12 14 14 14 10 9 9
15 14 13 13 13 13 14 14 15 13 12 12 12 12 12 11 11 11 12 12 12 11 12 12 12 11 12 12 12 10 7 5 5 2 5 6 7 8 9 9 9 10 10 9 9 9 10 9 9 9 8 7 6 4 3 2 2 1 1 4 8 7 11 12 9 6 6 6 8 8 9 12 14 17 17 16 15 14 11 10 8 8 8 9 9
15 15 14 14 13 14 14 14 13 12 11 11 11 12 12 11 11 11 10 10 10 11 13 13 13 12 11 11 9 4 2 5 4 4 6 6 6 7 6 5 6 5 8 8 8 9 9 8 8 8 8 7 6 5 4 3 4 4 3 4 5 6 6 7 7 8 9 9 9 8 9 7 7 7 7 7 8 9 10 10 10 10 10 11 12
16 15 15 14 14 14 14 15 14 13 12 12 13 12 12 11 10 9 9 10 10 12 12 13 11 9 8 3 1 2 4 5 6 6 5 4 5 7 7 6 4 3 5 7 9 9 8 8 8 7 7 6 6 5 4 5 4 4 3 4 5 6 6 6 7 7 9 8 7 7 6 8 7 7 7 8 9 9 8 9 11 11 10 10 10
15 14 14 15 15 15 15 14 13 12 11 11 11 10 10 9 8 7 7 9 10 10 10 9 7 6 5 3 4 4 6 7 7 8 8 9 15 16 9 6 4 13 16 14 9 6 7 7 8 7 6 5 4 5 6 4 2 1 1 2 3 4 4 6 8 11 8 6 6 7 7 8 8 8 8 8 9 8 9 10 9 10 10 11 11
15 16 16 15 14 13 13 13 12 12 11 12 11 11 8 4 5 6 7 9 8 6 6 5 3 5 5 5 6 7 8 8 9 9 9 8 8 10 16 16 14 14 14 15 15 15 14 11 8 7 9 14 12 8 6 4 2 2 2 4 5 7 6 8 9 5 5 4 6 8 8 8 8 8 9 9 9 9 9 10 9 10 9 10 8
Wind_Direction
177 190 175 168 160 161 155 156 156 156 159 159 161 159 155 155 146 147 143 146 156 161 168 168 160 143 142 109 106 157 111 96 72 63 66 57 32 48 23 43 38 12 338 303 347 4 292 318 314 273 282 260 195 192 206 213 197 215 225 226 231 247 273 286 325 312 290 275 288 306 297 319 316 332 318 310 305 290 306 267 251 259 247 221 220
173 205 181 173 163 164 162 161 162 163 167 170 170 164 160 156 152 145 148 155 157 167 147 139 163 138 162 140 150 146 147 156 122 104 71 72 55 41 37 37 49 67 45 12 355 337 333 291 315 316 306 332 343 316 277 209 180 182 204 226 246 239 253 301 329 272 229 251 284 258 292 294 294 342 293 290 302 288 270 272 250 256 248 236 219
185 191 191 177 168 166 168 167 167 171 166 173 171 167 163 159 156 150 152 156 155 148 152 145 119 95 129 114 144 94 54 54 89 93 105 98 80 72 60 62 24 72 74 358 110 17 7 320 14 154 3 352 349 21 38 71 18 216 185 179 126 85 251 276 249 239 267 8 350 338 291 322 37 287 252 255 262 274 295 310 319 272 243 249 230
183 192 195 178 170 169 171 171 172 172 169 174 173 171 167 166 158 156 152 158 151 152 151 126 118 108 87 106 73 74 108 99 97 101 90 108 99 56 64 37 49 71 83 138 60 66 23 353 357 4 8 342 18 29 40 31 47 107 57 6 12 185 183 134 160 219 222 250 226 227 217 229 257 187 204 235 293 303 314 343 359 333 294 247 237
186 205 195 184 174 174 177 175 172 177 175 176 174 175 172 169 159 159 157 155 152 150 144 134 130 136 121 118 109 101 120 139 145 124 122 104 104 112 90 69 41 54 56 39 63 69 38 24 34 10 16 347 351 17 8 19 17 27 64 121 202 50 90 124 128 82 85 220 248 96 204 224 231 102 275 188 129 308 321 281 315 3 331 347 341
198 214 209 189 185 180 179 176 180 181 178 178 175 176 170 169 160 162 157 157 152 151 145 148 158 156 155 152 152 156 146 155 151 136 142 145 100 100 120 95 66 58 56 50 56 57 60 35 357 59 69 5 3 4 11 33 33 354 34 18 63 73 107 201 137 97 107 90 64 40 328 307 289 90 273 250 303 246 301 340 25 343 2 334 20
205 210 214 195 195 191 182 184 185 183 181 175 174 176 174 169 164 165 159 159 154 155 153 160 163 168 172 163 157 164 147 140 112 130 117 101 115 115 96 98 104 79 52 78 80 63 44 43 19 22 33 32 29 15 31 9 22 26 5 16 5 39 13 113 75 105 104 148 142 82 0 331 39 347 231 329 243 105 291 321 349 347 343 326 335
217 209 213 210 205 200 196 189 189 186 179 175 174 176 175 173 167 168 162 160 159 158 160 168 168 168 177 166 159 165 151 125 133 124 107 114 112 123 122 121 117 93 102 92 106 85 79 76 61 43 40 56 62 61 50 33 30 42 32 15 26 18 12 5 33 120 12 164 161 165 166 168 60 63 9 6 341 323 115 10 56 7 1 337 338
216 225 213 215 209 205 202 197 193 187 183 180 174 176 175 172 168 169 165 161 160 162 162 170 174 169 178 167 166 153 135 142 144 134 129 121 130 131 120 106 98 90 80 88 73 88 90 76 61 50 26 30 69 76 52 51 48 37 32 38 30 34 28 20 12 32 358 21 355 19 168 157 154 148 178 146 70 6 316 9 354 153 187 217 317
194 205 217 227 238 229 206 202 195 194 187 179 174 174 176 170 170 172 168 165 160 164 165 170 175 170 180 172 168 150 150 154 153 139 138 147 139 134 125 130 115 113 114 90 105 96 90 94 77 60 43 38 45 59 74 74 51 53 47 46 39 48 49 42 32 19 27 16 354 340 327 344 264 167 175 165 159 180 273 305 281 317 334 331 190
245 121 154 183 203 239 233 212 200 193 188 182 175 177 175 173 171 173 171 168 162 166 166 169 176 174 184 170 172 156 157 157 148 152 151 164 151 156 159 138 137 119 121 126 98 96 87 75 71 75 70 44 50 57 57 60 69 70 72 65 50 44 51 50 55 39 28 46 6 4 3 13 12 359 10 7 354 317 303 304 317 225 234 259 219
323 36 74 74 145 227 223 217 205 194 191 186 180 177 178 174 172 171 172 172 166 167 168 169 177 178 182 171 173 163 160 163 156 166 160 168 164 166 166 152 151 140 146 140 142 121 120 103 96 83 70 64 53 54 52 71 67 63 54 50 60 61 50 53 46 39 21 68 48 18 14 14 29 8 32 357 344 340 326 312 302 310 290 284 226
31 51 63 61 53 234 229 219 208 198 193 194 184 180 179 176 173 172 173 175 169 169 170 170 177 178 181 174 177 169 171 169 162 169 168 175 172 181 171 172 159 159 170 158 153 163 146 139 149 107 86 55 56 67 58 43 60 75 64 62 53 52 56 46 54 43 33 18 31 48 2 22 34 32 19 5 2 330 302 294 304 318 313 308 291
47 40 43 43 33 15 227 213 205 198 202 205 200 185 180 178 176 176 172 174 170 171 172 172 177 179 180 179 179 172 179 175 177 171 176 184 176 177 187 181 171 169 165 177 155 178 168 158 140 106 92 98 89 72 55 58 37 91 85 72 74 70 64 70 67 60 48 29 8 26 22 37 15 28 10 326 14 352 340 342 333 321 309 291 287
48 49 44 45 50 47 33 194 202 207 208 207 208 199 185 182 180 178 173 173 172 173 174 176 177 179 182 182 183 181 179 182 188 180 178 191 182 173 191 185 181 179 169 177 155 187 167 170 158 148 152 137 114 111 117 104 24 37 86 84 83 71 62 59 60 47 49 43 35 12 22 61 10 20 348 18 355 12 357 354 338 326 319 300 288
51 54 57 54 58 60 70 175 206 210 199 200 208 205 197 186 181 181 177 173 174 173 177 179 179 180 183 187 187 190 185 186 193 186 182 191 189 178 186 189 191 180 172 173 164 187 174 177 172 173 165 168 167 163 191 145 111 96 99 101 100 88 102 107 106 91 62 45 36 5 16 47 27 22 347 30 359 1 333 328 327 323 322 322 329
57 62 60 67 68 62 83 100 141 175 193 205 210 203 201 193 179 179 179 173 177 176 177 180 181 182 185 189 191 193 194 195 196 191 185 185 190 189 185 189 191 185 177 175 175 189 181 184 188 179 181 183 183 187 201 147 182 205 116 127 120 127 119 68 44 61 68 45 60 26 18 55 40 354 30 5 3 340 339 329 311 312 329 315 314
66 69 71 63 64 75 73 79 113 142 160 171 196 195 195 198 181 173 181 175 178 177 180 180 185 186 186 192 195 196 199 201 203 194 192 187 193 193 194 188 194 188 183 178 183 191 187 189 194 186 189 193 187 196 203 177 204 197 152 190 151 144 156 146 143 119 92 88 58 25 8 58 32 2 13 350 356 345 308 319 313 301 293 295 305
66 64 63 69 70 64 73 78 80 89 105 134 143 162 174 188 180 179 181 175 178 180 185 182 186 189 191 194 198 198 201 204 206 206 195 201 198 201 200 196 191 193 190 182 187 193 192 192 201 191 191 195 195 197 203 190 210 191 179 199 160 195 185 165 147 124 156 154 130 133 336 86 32 354 318 355 348 313 327 313 316 314 299 284 284
68 68 68 67 70 75 73 71 91 104 102 103 108 132 132 142 149 163 165 173 179 181 187 188 187 190 195 194 203 207 203 208 207 210 208 209 211 209 205 203 197 197 197 188 193 196 195 196 199 197 195 198 198 200 199 199 203 202 194 202 182 204 198 182 175 179 172 173 167 181 167 26 49 313 309 349 309 288 304 310 305 301 290 280 272
74 73 75 77 78 78 84 96 94 87 96 108 113 102 90 92 118 116 124 127 160 165 181 184 191 207 211 212 207 214 214 210 213 212 218 219 219 217 215 208 202 202 202 197 199 202 200 200 202 202 201 200 202 201 198 204 202 202 201 209 173 206 205 195 183 174 195 193 193 198 183 174 172 263 319 305 285 301 297 288 277 272 273 270 269
85 81 80 82 83 82 83 81 84 107 110 97 93 93 95 102 101 89 125 138 133 95 202 203 203 219 226 225 232 247 240 231 226 224 224 231 227 224 222 217 217 209 209 209 206 206 207 204 209 207 206 205 204 204 201 203 204 202 201 202 187 205 212 201 183 202 185 194 172 242 210 144 211 263 259 282 320 325 307 290 300 309 305 302 297
97 95 91 84 82 89 91 88 87 84 81 84 102 116 130 128 116 94 90 124 160 169 156 87 27 356 251 265 278 264 270 252 235 232 229 232 236 232 226 227 222 217 214 216 215 214 213 213 211 214 210 209 208 206 201 203 205 203 199 194 199 204 207 198 194 210 202 187 191 202 220 193 207 234 248 270 281 280 294 301 301 296 294 296 293
107 100 98 100 104 97 90 92 90 84 85 89 88 81 73 77 94 108 112 121 114 110 147 127 154 219 222 226 215 243 259 259 253 235 248 266 267 256 240 228 223 222 220 216 219 220 217 219 221 217 217 214 212 210 205 205 209 206 203 198 199 202 201 201 203 205 210 183 201 199 224 232 226 248 273 301 289 289 289 297 295 289 281 280 280
111 107 99 95 84 80 81 82 84 87 84 77 77 82 85 86 88 95 92 79 79 68 142 162 191 202 225 242 173 141 245 267 276 266 214 221 249 272 264 239 229 225 224 222 218 219 224 221 222 225 223 220 218 214 212 208 211 210 206 206 201 203 199 201 202 202 194 191 201 209 238 256 276 283 284 287 310 315 303 296 294 294 286 282 279
121 111 105 93 90 85 78 73 75 76 82 88 89 82 79 81 84 80 79 82 85 81 86 129 185 234 247 253 219 203 222 237 247 234 221 220 212 213 264 272 249 237 230 230 228 222 223 222 218 223 227 227 227 222 223 217 220 212 209 209 203 203 199 199 198 198 194 209 213 221 226 229 250 266 285 296 299 299 300 295 295 297 300 301 292
132 126 122 116 100 90 87 80 73 74 76 76 68 77 79 84 79 78 75 69 59 50 64 54 33 334 181 188 213 246 244 236 235 250 258 237 236 228 226 238 240 238 234 232 233 235 232 230 222 220 224 227 223 223 228 231 233 232 217 212 199 200 191 198 195 199 205 199 205 215 225 235 249 260 277 283 290 297 287 287 285 284 285 287 286
147 151 135 123 110 102 93 78 76 78 67 72 75 62 67 55 64 63 71 69 64 48 31 36 80 174 229 255 272 230 196 222 237 237 237 233 236 239 247 252 236 239 240 238 234 233 233 233 233 234 233 229 228 223 228 227 226 233 225 225 210 194 191 191 190 201 203 209 218 235 239 246 250 256 261 269 311 298 301 297 293 292 290 288 287
198 137 132 126 118 103 93 91 91 94 89 66 71 89 75 66 51 54 52 53 47 33 360 341 334 268 305 304 260 245 254 255 239 229 246 242 238 242 237 238 242 239 239 246 242 238 10 312 296 289 266 266 247 229 224 222 216 219 209 223 221 203 194 187 188 202 213 220 236 242 249 247 265 66 66 21 275 281 285 281 281 283 279 280 280
194 167 148 127 118 118 111 101 76 57 59 73 69 48 55 56 53 33 41 41 45 38 343 335 301 308 291 275 266 257 252 247 250 247 236 231 227 228 234 240 245 248 248 243 240 180 144 226 284 257 241 231 259 295 2 210 215 211 205 213 217 212 190 184 190 200 203 225 240 255 251 247 203 202 221 227 237 239 228 244 269 279 283 283 280
185 184 160 141 137 131 122 111 103 89 86 70 43 55 48 42 37 11 7 358 352 351 324 300 301 307 302 282 264 253 249 256 256 255 254 250 247 239 231 239 241 241 238 228 214 141 171 193 235 250 244 156 109 120 85 74 102 144 189 200 204 196 182 187 189 209 231 235 243 254 269 211 189 212 222 227 232 223 226 233 238 253 271 278 283
210 193 185 167 145 128 114 96 96 92 97 82 64 17 63 18 23 349 347 343 337 307 294 291 284 286 279 284 292 289 276 270 262 259 261 259 256 248 241 232 232 231 228 224 231 201 194 209 220 235 225 117 107 129 123 115 96 86 105 174 185 179 178 193 205 220 229 245 259 273 275 279 277 274 286 251 222 221 226 225 228 233 233 238 241
212 219 211 192 150 124 114 98 126 83 9 35 23 28 41 13 352 325 318 313 298 298 296 293 296 291 285 278 277 274 273 272 271 269 268 268 264 263 254 244 233 231 226 231 239 238 237 223 222 224 216 142 122 122 114 107 99 93 82 125 169 179 184 203 212 221 253 272 275 279 280 276 279 244 226 250 268 251 212 220 226 226 231 231 232
196 211 207 187 132 78 79 71 25 36 21 350 349 358 3 324 315 319 313 310 304 290 281 287 283 277 280 283 278 277 275 270 271 270 267 265 264 261 260 255 251 228 225 231 230 235 237 232 206 215 162 131 127 121 108 102 96 88 70 16 161 150 194 242 241 246 251 261 264 266 274 278 280 281 283 279 283 280 300 267 237 234 241 228 224
179 222 265 281 259 64 77 52 358 7 320 292 309 355 325 318 324 317 316 310 303 301 300 292 285 284 284 278 275 276 279 282 281 281 280 275 270 267 261 254 248 242 232 226 229 236 233 220 204 154 124 116 97 109 105 102 99 94 77 350 146 148 216 239 243 245 251 258 262 260 262 268 275 278 293 22 301 297 299 295 289 290 286 290 283
211 214 240 257 291 341 326 7 342 281 308 316 329 330 316 311 316 305 301 293 296 296 289 289 288 289 285 281 276 273 271 268 267 267 267 265 262 259 259 260 254 249 242 231 229 234 234 223 169 121 122 112 110 100 101 102 103 105 104 169 146 174 253 251 251 252 255 258 257 261 262 267 278 280 66 83 39 319 291 289 288 285 285 283 277
231 249 248 261 254 252 21 320 291 312 310 313 313 310 305 302 300 300 299 299 293 287 284 280 275 272 274 275 275 274 273 274 272 271 269 269 269 265 261 261 256 248 249 239 229 232 228 160 122 124 118 118 121 120 112 114 115 122 171 161 163 223 238 232 235 247 254 257 254 256 257 267 281 288 109 119 117 219 280 284 285 287 286 285 282
240 239 253 246 265 301 281 289 297 290 284 283 298 300 297 293 293 297 298 297 300 297 296 295 292 290 284 281 276 274 270 267 267 266 266 265 266 269 264 257 258 250 241 256 261 193 151 116 122 122 123 125 127 135 137 134 138 163 300 260 218 240 242 251 260 256 259 263 269 212 248 264 270 273 118 141 140 205 277 285 288 291 290 286 288
265 261 270 282 301 312 303 292 279 276 283 292 293 293 288 286 292 296 298 298 294 293 291 293 294 294 292 289 288 284 282 278 276 276 275 273 268 266 265 261 255 268 255 115 96 95 94 92 94 102 107 117 130 148 161 139 136 134 352 312 275 264 269 262 272 278 273 275 280 234 202 227 249 279 100 133 160 253 286 287 289 292 290 287 289
267 271 281 300 298 281 272 272 275 276 281 280 282 282 285 284 283 285 287 290 291 290 293 292 290 290 289 288 284 282 276 275 273 273 271 273 274 265 266 267 199 109 85 109 110 100 97 96 105 115 124 125 134 143 155 154 150 104 21 344 321 299 286 288 285 289 303 294 285 284 256 207 215 54 51 35 7 1 286 290 291 287 288 286 290
289 300 327 291 290 294 295 295 289 285 282 282 280 279 277 276 280 281 280 284 289 291 290 290 289 287 285 284 284 286 289 285 282 278 278 271 267 264 250 212 169 153 123 109 103 104 109 116 122 127 128 135 140 152 165 179 171 134 60 319 316 303 305 313 309 303 288 289 287 292 18 74 77 56 38 336 310 284 281 292 290 284 281 298 317
271 269 269 277 283 286 282 277 277 279 279 275 276 276 277 279 282 283 287 286 284 285 285 286 288 289 289 290 289 288 285 284 282 284 276 274 270 252 195 190 177 147 130 118 117 120 126 127 131 135 136 141 151 154 163 179 166 172 185 229 269 348 29 316 300 285 286 287 296 296 319 120 120 141 287 272 272 276 274 289 284 284 289 290 287
286 284 282 283 281 274 271 279 283 281 279 280 279 278 276 276 274 278 282 284 288 289 286 283 282 283 287 288 289 285 280 273 265 262 267 268 260 175 163 157 142 137 131 130 132 136 133 131 128 129 129 141 151 145 149 163 180 185 191 210 225 285 87 279 289 295 294 294 292 301 287 24 347 337 330 324 316 305 299 289 290 283 280 277 274
286 289 288 286 283 282 280 276 275 276 277 278 278 279 280 280 282 286 284 285 281 276 276 278 281 283 284 284 282 282 276 273 272 273 266 256 191 145 154 149 144 136 135 137 138 134 132 133 136 138 149 156 158 158 148 153 178 192 189 202 194 223 247 289 311 294 291 291 293 299 318 327 310 307 294 285 285 284 278 276 273 271 269 270 270
288 286 287 284 278 276 275 276 277 280 282 281 279 279 280 279 279 281 281 282 282 284 283 283 283 282 283 285 286 288 290 287 286 280 257 185 173 156 138 136 134 140 141 140 137 136 138 147 150 157 162 166 163 163 160 168 175 189 193 197 205 213 216 218 249 291 281 285 293 293 300 309 309 294 283 275 268 258 253 255 259 262 265 268 275
282 281 278 280 284 284 282 281 278 277 279 278 277 276 276 277 280 278 279 278 278 278 279 283 287 290 293 293 293 297 289 285 283 259 233 169 178 163 145 147 141 137 137 136 145 156 163 164 160 161 152 142 150 157 165 175 190 195 200 200 212 212 214 211 225 264 285 291 292 295 291 280 273 266 272 290 304 305 300 292 286 278 270 265 267
282 285 288 284 281 279 280 282 284 285 282 279 277 276 278 280 278 275 274 275 276 281 283 286 285 287 289 290 288 280 273 267 247 225 175 175 158 152 147 149 149 149 154 163 165 159 152 150 144 137 133 138 137 119 111 91 72 12 309 187 209 220 215 225 233 253 268 292 313 320 311 296 278 275 271 267 266 270 272 269 270 276 282 279 278
275 280 283 284 281 278 277 278 276 275 277 280 279 277 276 273 272 270 271 274 278 281 283 282 285 286 285 283 277 66 173 220 185 126 142 153 145 139 142 145 156 155 151 141 142 144 141 140 134 136 139 130 114 89 58 38 34 8 345 343 354 346 355 354 351 351 337 322 316 310 291 286 300 299 301 318 316 314 311 312 305 302 298 293 286
281 282 285 282 285 286 284 278 275 276 274 272 271 271 273 274 278 281 282 282 285 286 281 280 284 287 282 307 281 183 207 157 142 94 73 85 143 142 127 114 105 144 138 138 139 128 129 130 126 120 118 105 98 94 76 48 47 36 353 343 350 1 354 344 8 351 320 320 323 314 312 311 315 312 310 309 313 312 309 307 304 300 300 298 296
283 283 281 281 279 276 275 277 277 276 271 270 272 274 275 277 281 285 293 293 288 285 282 276 268 258 244 181 175 165 134 131 116 109 100 77 55 53 51 84 85 69 68 58 60 88 90 86 76 54 42 98 108 93 104 107 100 79 32 277 284 307 293 290 303 307 296 295 320 322 322 322 318 317 315 311 310 312 310 308 305 304 299 295 295
279 277 276 275 279 282 283 281 280 278 277 273 271 271 282 297 289 295 298 293 290 282 270 260 229 203 173 153 143 141 144 129 120 119 100 83 86 67 54 56 66 70 70 69 71 70 70 73 87 100 72 68 85 105 120 117 106 228 260 292 274 259 261 267 276 298 294 317 315 324 327 324 322 318 314 310 309 308 308 306 305 305 300 294 291